Home   Weather   Township of Fairfield   Past weeks
Flag for USA

Past Weather in Township of Fairfield, Kansas, USA — Yesterday and Last 2 Weeks

Now
25 °F

Mostly cloudy.


Feels Like: 14 °F
Forecast: 30 / 22 °F
Wind: 13 mph from East

Location: Hays Municipal

Current Time: Dec 15, 2019 at 12:21:05 am

Latest Report: Dec 14, 2019 at 11:56 pm


Visibility: 10 mi

Pressure: 29.96 "Hg

Humidity: 75%

Dew Point: 18 °F

Location of Township of FairfieldLocation

Past Weather in Township of Fairfield — Graph

°F

Township of Fairfield Temperature Yesterday

Maximum temperature yesterday: 32 °F (at 1:56 pm)
Minimum temperature yesterday: 21 °F (at 8:56 pm)
Average temperature yesterday: 29 °F

High & Low Weather Summary for the Past Weeks

 TemperatureHumidityPressure
High60 °F (Dec 3, 1:56 pm)97% (Nov 29, 10:56 pm)30.48 "Hg (Nov 29, 10:56 pm)
Low17 °F (Dec 2, 6:56 am)30% (Dec 2, 2:56 pm)29.46 "Hg (Nov 30, 9:56 am)
Average36 °F70%30.03 "Hg
* Reported Nov 29 10:56 pm — Dec 14 10:56 pm, Township of Fairfield. Weather by CustomWeather, © 2019

Note: Actual official high and low records may vary slightly from our data, if they occured in-between our weather recording intervals... More about our weather records

Township of Fairfield Weather History for the Previous 24 Hours

Scroll right to see more
 ConditionsComfort  
Time TempWeatherWind HumidityBarometerVisibility
10:56 pm
Sat, Dec 14
26 °FMostly cloudy.13 mph74%29.97 "Hg10 mi
9:56 pm26 °FOvercast.13 mph81%29.98 "Hg10 mi
8:56 pm21 °FPassing clouds.7 mph88%30.01 "Hg10 mi
7:56 pm24 °FClear.8 mph81%29.99 "Hg10 mi
6:56 pm26 °FPassing clouds.8 mph81%29.96 "Hg10 mi
5:56 pm29 °FOvercast.12 mph82%29.93 "Hg10 mi
4:56 pm30 °FOvercast.14 mph82%29.94 "Hg10 mi
4:22 pm30 °FMore clouds than sun.13 mph80%29.88 "Hg10 mi
3:56 pm31 °FMostly cloudy.12 mph79%29.93 "Hg10 mi
2:56 pm32 °FOvercast.9 mph75%29.94 "Hg10 mi
1:56 pm32 °FOvercast.10 mph79%29.94 "Hg10 mi
1:05 pm30 °FOvercast.10 mph86%29.91 "Hg10 mi
11:56 am30 °FLow clouds.13 mph89%29.99 "Hg10 mi
10:56 am30 °FLow clouds.12 mph92%30.02 "Hg10 mi
9:56 am30 °FLow clouds.6 mph92%30.01 "Hg10 mi
8:56 am29 °FLow clouds.5 mph96%30.02 "Hg10 mi
7:56 am28 °FLow clouds.7 mph96%30.01 "Hg10 mi
7:07 am28 °FLow clouds.7 mph93%29.94 "Hg10 mi
6:56 am27 °FPassing clouds.6 mph96%29.99 "Hg10 mi
5:56 am25 °FClear.5 mph96%29.97 "Hg10 mi
4:56 am28 °FClear.7 mph96%29.94 "Hg10 mi
3:56 am30 °FClear.8 mph96%29.93 "Hg10 mi
2:56 am29 °FClear.8 mph96%29.95 "Hg10 mi
1:56 am31 °FClear.8 mph96%29.94 "Hg10 mi
12:56 am30 °FClear.9 mph92%29.96 "Hg10 mi
Weather by CustomWeather, © 2019

See weather overview

Advertising